Lapse_Rate
3.4 3.0 3.4 5.4 6.5 6.6 6.9 6.9 6.8 6.8 6.6 6.6 5.6 5.7 6.2 6.2 6.0 6.3 6.2 6.1 6.0 5.9 5.6 5.9 5.8 5.5 5.4 5.2 5.3 5.1 5.0 5.0 5.0 4.9 5.0 4.8 4.6 4.7 4.4 4.6 4.9 4.7 4.7 4.1
3.5 2.9 3.5 5.6 6.3 6.3 6.6 6.8 6.6 6.9 6.9 6.5 6.0 6.2 6.3 6.4 6.6 6.4 6.0 6.1 6.0 5.9 5.6 5.7 5.8 5.5 5.2 5.1 5.1 5.0 5.0 4.9 5.2 5.2 4.9 4.7 4.7 4.6 4.6 4.4 4.4 4.3 3.9 5.2
3.6 3.3 3.7 5.7 6.3 6.3 6.6 7.0 7.0 7.1 6.8 6.6 6.2 6.2 6.5 6.6 6.5 6.5 6.2 6.1 6.0 5.9 5.9 5.8 5.5 5.5 5.2 5.2 5.1 5.1 5.0 5.1 5.4 5.3 5.1 5.2 4.7 4.8 4.5 4.3 4.1 4.2 4.5 5.0
3.8 3.5 3.8 5.6 6.2 6.3 6.8 7.3 7.3 7.1 6.9 6.2 6.4 6.4 6.5 6.3 6.4 6.4 6.3 6.3 6.2 6.4 6.1 5.9 5.7 5.3 5.4 5.2 5.2 5.0 5.0 4.9 5.0 5.1 4.8 4.6 4.8 5.0 4.6 4.3 4.5 4.2 6.0 4.6
3.8 3.7 4.0 5.7 6.2 6.2 7.0 7.3 7.2 6.7 6.5 6.4 6.4 6.3 6.3 6.6 6.4 6.5 6.5 6.6 6.5 6.5 6.3 6.3 6.0 5.7 5.3 5.5 5.1 4.9 4.9 4.8 4.8 4.9 5.2 5.2 4.8 4.8 4.7 4.6 4.4 4.5 4.7 5.1
3.9 4.0 4.0 5.6 6.2 6.2 6.8 7.0 6.2 6.6 6.5 6.7 6.8 6.6 6.5 6.4 6.5 6.7 6.7 6.5 6.4 6.3 6.2 6.2 5.9 5.7 5.5 5.2 5.4 4.9 4.9 4.8 4.7 5.0 5.5 5.4 5.2 6.0 5.3 5.3 5.0 4.9 4.4 5.7
3.9 4.1 4.1 5.3 5.9 6.1 6.6 6.9 6.4 6.6 6.5 6.5 6.4 6.2 6.1 6.4 6.5 6.5 6.3 6.4 6.3 6.3 6.3 6.3 6.1 5.9 5.7 5.3 5.1 4.8 4.9 4.8 4.5 4.9 5.3 4.7 5.8 5.9 5.7 5.1 5.2 5.2 5.0 5.4
4.0 4.1 4.2 5.3 5.7 5.8 6.2 6.5 6.7 6.5 6.4 6.1 5.7 5.8 5.7 5.8 5.8 5.7 5.9 6.2 6.4 6.4 6.2 6.2 6.0 5.7 5.6 5.3 5.1 4.9 4.9 4.7 4.7 4.9 5.3 5.8 6.0 5.6 5.4 5.3 5.5 5.4 5.6 5.6
4.2 4.0 4.3 5.2 5.7 5.9 6.1 6.1 6.2 6.3 6.1 5.8 5.5 5.6 5.7 5.7 6.2 6.1 6.1 6.2 6.3 6.2 6.0 5.9 5.9 6.1 6.0 5.7 5.3 5.0 4.9 4.9 5.0 4.8 4.8 5.4 6.0 5.8 6.0 5.6 5.5 5.7 5.8 5.6
4.4 4.0 4.4 5.1 5.7 5.8 6.2 6.1 6.3 6.0 6.0 5.9 5.8 5.9 6.0 6.1 6.0 6.0 6.1 6.2 6.1 6.2 6.0 6.0 6.2 6.4 6.5 6.4 5.8 5.3 5.1 5.1 4.7 4.4 4.7 5.3 5.9 6.1 6.0 5.9 5.8 5.4 5.6 5.5
4.3 4.0 4.4 4.9 5.7 5.6 5.8 6.0 5.9 5.8 5.9 5.8 6.0 5.9 6.0 6.0 6.0 6.1 6.2 6.0 6.0 6.2 6.1 6.0 6.2 6.2 6.5 6.6 6.4 6.3 5.7 4.9 4.9 4.4 4.8 4.9 5.9 6.0 6.0 6.0 6.0 5.9 5.5 5.8
4.1 4.0 4.5 4.7 5.5 5.6 5.8 5.8 5.9 5.8 6.1 5.9 6.1 6.0 6.2 6.2 6.4 6.2 6.4 6.3 6.2 6.1 5.9 6.0 5.9 6.1 6.1 6.4 6.2 5.8 5.9 5.9 5.2 5.3 5.8 6.0 5.7 6.1 6.2 6.2 6.3 6.5 6.4 6.4
3.8 4.0 4.6 4.7 5.4 5.8 6.0 5.9 5.5 5.7 5.8 6.1 6.1 6.1 6.2 6.3 6.3 6.2 6.2 6.0 6.1 6.0 5.9 5.8 5.8 5.9 6.0 6.0 6.0 5.9 5.9 5.6 5.5 5.5 6.2 6.2 6.1 6.3 6.3 6.5 6.5 6.6 6.7 6.7
3.6 4.0 4.6 4.8 5.4 5.9 6.0 5.9 5.5 5.7 6.0 6.2 6.2 6.3 6.4 6.3 6.2 6.3 6.2 6.2 5.9 5.9 5.8 5.7 5.6 6.0 6.1 6.0 6.0 6.0 5.9 5.9 6.1 6.0 6.3 6.3 6.3 6.3 6.4 6.4 6.4 6.5 6.7 6.9
3.5 4.0 4.5 4.8 5.4 5.9 5.8 6.0 5.8 5.9 6.1 6.2 6.3 6.2 6.3 6.3 6.4 6.1 6.0 6.3 6.0 5.8 5.7 5.5 5.6 6.0 6.0 6.1 6.0 6.0 6.2 6.3 6.1 6.0 5.9 6.1 6.2 6.2 6.3 6.3 6.5 6.7 6.7 6.7
3.4 4.3 4.6 4.9 5.6 5.8 5.9 6.1 5.8 6.0 6.1 6.1 6.4 6.5 6.3 6.5 6.5 6.3 6.2 6.2 6.1 5.9 5.9 5.8 6.2 6.3 6.2 6.0 5.9 6.4 6.2 6.3 6.3 6.1 6.1 6.2 6.1 6.1 6.2 6.2 6.3 6.5 6.5 6.6
3.6 4.4 4.8 5.2 5.6 5.8 6.1 6.5 6.5 6.2 6.2 6.1 6.5 6.6 6.4 6.3 6.3 6.1 6.1 6.0 5.8 5.9 6.0 6.1 6.4 6.3 6.3 6.0 6.2 6.2 6.3 6.2 6.3 6.0 6.1 6.2 6.3 6.2 6.1 6.3 6.3 6.3 6.2 6.2
4.4 4.7 5.4 5.6 5.8 6.0 6.1 6.4 6.4 6.3 6.2 6.0 5.9 6.3 6.5 6.3 6.1 6.0 5.9 5.8 5.5 5.8 6.1 6.3 6.4 6.4 6.3 6.3 6.5 6.1 6.3 6.5 6.3 6.1 6.0 6.1 6.0 6.1 6.2 6.3 6.2 6.3 6.0 5.9
5.0 5.6 5.8 5.9 5.7 5.7 6.1 6.1 6.3 6.2 6.0 6.3 6.3 6.0 6.1 6.2 6.0 5.8 6.0 5.9 5.8 6.0 5.9 6.1 6.4 6.4 6.5 6.9 6.4 6.2 6.2 6.0 6.1 6.1 6.0 5.8 5.8 5.9 6.1 6.1 6.2 6.1 5.8 5.9
4.8 5.6 5.8 5.6 5.8 5.6 5.9 5.7 5.9 5.8 5.8 5.9 6.0 5.9 5.8 5.9 5.8 5.8 5.7 6.0 6.0 5.9 5.9 5.9 6.2 6.6 6.5 6.1 6.1 6.1 6.0 5.8 5.5 5.6 5.7 5.9 6.0 6.0 6.2 6.1 6.0 5.8 5.7 5.8
4.8 5.2 5.4 5.6 5.6 5.7 5.9 6.0 6.1 6.0 5.9 6.0 6.1 5.9 5.8 5.7 5.7 5.7 5.6 5.8 5.9 5.9 5.9 5.8 5.8 6.4 6.3 6.0 6.0 6.1 6.4 5.9 5.7 5.7 5.8 5.9 5.9 5.9 5.8 5.7 5.8 5.7 5.8 5.8
5.3 5.7 5.6 6.0 6.0 6.1 6.0 6.0 5.9 5.8 5.9 5.9 5.9 6.0 5.7 5.6 5.5 5.7 5.8 5.8 5.8 5.8 5.8 5.8 5.8 5.8 5.9 6.1 6.2 6.2 6.3 6.3 6.1 5.9 5.8 5.8 5.7 5.8 5.6 5.7 5.6 5.6 5.5 5.5
5.7 5.8 5.7 6.0 6.0 5.9 5.9 5.8 5.7 5.7 5.8 5.9 5.9 6.0 5.7 5.7 5.5 5.7 6.0 5.9 5.9 5.7 5.8 5.9 5.9 5.8 5.9 6.1 6.2 6.1 6.1 6.2 6.1 6.0 5.8 5.7 5.8 5.8 5.7 5.5 5.6 5.5 5.5 5.5
5.6 5.7 5.6 6.0 6.0 6.0 5.8 5.9 5.8 5.8 6.2 6.1 6.0 5.9 6.1 5.8 5.8 5.8 5.9 5.9 6.0 6.3 6.5 6.2 6.0 6.2 6.3 6.3 6.4 6.2 6.0 6.1 6.1 6.2 5.9 6.0 5.9 5.9 6.1 5.7 5.8 5.6 5.6 5.6
5.8 5.7 6.0 5.8 6.0 6.2 6.2 6.1 6.1 6.0 6.3 6.3 6.1 5.8 5.8 6.0 5.9 5.9 6.0 5.9 6.2 6.4 6.5 6.3 6.5 6.6 6.7 6.6 6.5 6.6 6.7 6.7 6.7 6.6 6.6 6.5 6.6 6.6 6.6 6.5 6.5 6.5 6.4 6.2
5.7 5.9 6.0 6.1 6.3 6.5 6.5 6.5 6.4 6.2 6.2 6.0 5.8 6.1 6.0 5.8 5.7 6.0 6.2 6.3 6.4 6.4 6.5 6.5 6.6 6.6 6.6 6.6 6.6 6.5 6.6 6.6 6.9 7.0 7.0 7.0 7.0 6.8 6.9 6.8 6.8 6.8 6.5 6.1
5.3 6.0 6.3 6.3 6.5 6.6 6.5 6.6 6.6 6.5 6.4 5.9 5.8 6.1 6.3 6.0 6.0 6.3 6.4 6.6 6.5 6.5 6.5 6.5 6.6 6.7 6.6 6.7 6.8 6.8 6.9 7.0 7.1 7.0 7.0 7.0 7.0 6.8 6.8 6.7 6.6 6.3 6.1 6.1
Wind_Speed
24 25 24 26 28 30 9 1 3 4 3 2 2 2 3 2 3 4 4 2 6 12 14 9 8 11 3 16 11 12 3 3 4 8 8 15 12 6 7 3 4 4 1 6
24 23 24 26 27 29 5 2 2 4 3 1 2 2 2 4 2 5 3 2 2 13 9 6 5 9 2 13 12 12 7 3 3 2 6 10 8 12 11 8 4 7 2 6
23 22 23 26 27 29 4 1 1 2 2 3 4 3 2 2 5 5 4 3 9 15 7 12 10 8 3 4 5 8 8 3 5 1 3 4 3 9 14 13 4 6 16 22
22 22 21 24 26 28 3 1 2 2 3 5 8 1 5 2 2 1 4 3 8 9 3 12 7 9 9 4 3 3 4 3 6 8 8 9 7 10 11 13 16 13 21 18
21 21 21 23 25 26 1 2 3 3 3 8 8 1 4 2 6 4 1 5 10 5 4 0 12 13 8 6 5 5 2 2 5 6 10 12 12 14 16 17 17 16 20 26
21 20 20 20 22 17 2 1 2 2 7 2 2 2 3 4 4 6 7 7 6 12 9 11 10 3 6 7 8 5 4 2 2 3 7 5 6 13 16 14 14 17 17 21
21 22 21 20 19 17 3 2 2 2 3 1 2 5 2 5 1 4 3 4 5 4 7 7 7 9 7 3 4 7 6 4 2 4 5 3 3 6 3 8 10 12 11 18
20 20 21 20 18 19 5 2 2 2 3 7 3 5 1 3 5 5 6 8 7 7 5 2 2 2 1 3 3 3 2 3 2 2 3 7 3 4 5 4 3 12 15 15
19 18 18 18 17 18 6 1 1 2 3 2 9 4 3 0 3 3 3 4 6 4 2 0 2 3 4 4 3 4 4 4 1 3 2 3 1 5 4 5 2 6 2 5
20 19 18 17 17 16 8 0 2 1 2 5 7 2 2 3 2 2 5 3 1 2 2 1 2 2 2 4 6 5 4 3 6 4 3 7 5 6 7 1 1 2 4 3
18 20 17 17 14 13 7 4 4 1 2 7 5 3 3 1 1 1 2 2 1 1 2 2 3 3 4 3 6 7 8 7 4 5 3 8 3 4 2 2 3 4 3 4
18 19 18 17 15 12 11 2 1 2 3 5 4 7 7 3 2 2 3 1 3 2 2 1 3 3 2 5 2 5 5 6 5 6 5 8 4 3 6 3 2 3 1 3
20 20 18 16 15 10 6 3 2 1 3 4 2 2 4 1 3 3 3 0 3 3 1 2 3 5 3 3 5 6 5 8 3 2 8 12 13 7 4 4 3 4 3 1
21 21 18 16 14 11 7 3 2 2 3 2 0 1 2 3 2 2 2 3 4 3 2 2 3 3 2 2 2 2 2 8 6 5 11 15 1 4 4 5 5 4 3 1
21 20 18 15 13 11 9 5 5 5 2 2 3 5 3 3 2 2 2 3 4 2 3 3 3 3 2 3 3 3 4 5 4 4 0 2 2 3 4 6 5 5 4 5
22 22 21 15 12 8 3 2 1 6 3 2 2 1 2 2 1 3 2 2 2 2 3 3 3 4 1 3 3 4 4 6 5 2 2 4 5 5 4 6 5 6 6 6
24 25 24 17 11 4 3 1 2 7 2 2 2 2 2 2 1 1 0 2 2 2 2 3 2 2 1 2 3 2 1 4 3 4 2 3 5 3 7 7 7 9 7 6
27 26 15 11 10 6 4 3 14 8 2 2 2 2 2 3 1 2 2 2 2 4 2 1 2 2 2 3 4 6 3 5 4 5 0 4 7 7 7 6 7 8 7 7
20 10 14 4 2 2 2 2 5 5 2 2 2 1 2 3 2 1 2 1 2 0 3 2 1 2 4 4 3 5 5 4 4 4 5 4 5 6 6 7 7 8 7 8
10 2 1 2 2 3 5 2 3 3 3 2 2 2 2 1 1 1 1 0 1 1 1 2 2 3 6 5 5 5 5 3 1 1 1 1 2 6 6 6 6 7 8 10
1 1 1 2 4 2 2 1 2 2 2 3 2 2 2 1 1 1 1 1 1 1 0 1 1 2 2 7 7 6 6 5 5 3 0 2 5 7 7 7 7 9 10 11
3 3 3 2 1 0 2 1 1 2 2 2 2 1 1 1 1 1 0 1 1 1 2 1 2 2 6 7 7 8 7 7 4 4 3 2 2 7 7 7 9 9 11 12
2 2 1 1 1 2 3 5 1 1 1 2 2 1 1 1 0 0 1 1 1 1 1 2 1 5 8 7 5 7 7 7 5 3 2 3 6 9 10 9 9 12 12 11
1 0 2 3 3 2 1 1 2 1 1 1 1 1 0 1 1 1 1 0 1 1 1 2 2 8 9 8 8 7 7 6 5 5 5 4 6 7 8 9 10 11 12 10
1 1 2 2 1 3 2 2 1 1 1 1 1 1 1 1 0 0 1 1 2 2 1 1 4 8 9 9 9 9 9 8 6 4 2 4 6 7 7 8 9 10 11 11
1 1 2 2 1 1 1 1 1 1 2 0 1 0 1 2 1 1 3 1 2 0 2 2 4 6 7 8 8 6 6 6 5 4 2 3 5 6 7 9 10 10 11 12
2 2 1 1 1 1 2 1 2 2 1 1 1 2 4 1 1 2 1 1 1 1 2 2 5 6 7 7 7 6 6 6 5 4 4 3 5 7 7 7 4 8 8 8
Wind_Direction
340 340 341 341 342 344 337 8 334 324 183 82 237 241 339 349 315 288 241 118 121 146 167 152 170 173 251 176 193 186 145 203 171 206 226 209 197 209 209 168 237 238 166 265
344 344 344 343 345 347 328 15 314 314 304 52 253 84 354 24 246 327 359 113 153 146 137 140 169 128 98 172 170 162 154 220 183 157 231 189 217 214 223 240 304 231 242 261
343 348 347 344 346 349 1 6 88 21 56 276 317 207 12 288 326 345 343 91 147 129 162 143 143 116 92 121 101 103 166 222 242 136 40 114 186 234 217 210 213 255 238 279
345 351 348 346 349 349 343 28 44 29 207 252 238 163 157 197 90 238 293 135 147 140 113 118 113 122 127 138 129 94 139 255 264 274 280 271 237 214 220 232 241 237 272 276
348 351 350 351 354 343 35 22 348 334 269 250 216 80 103 274 81 23 174 147 146 154 108 63 145 151 164 172 166 160 137 255 315 290 266 259 255 248 248 248 241 252 269 277
348 350 350 356 358 356 328 34 233 269 278 161 94 232 161 182 110 311 9 85 89 68 45 48 53 63 153 136 160 155 151 223 273 268 305 320 274 243 237 242 238 242 255 265
350 354 351 352 355 359 323 31 287 307 323 273 271 3 357 187 262 161 82 20 66 89 75 70 52 52 47 68 148 170 175 192 261 269 287 236 212 154 211 264 272 229 240 255
343 345 337 339 346 350 339 21 331 329 313 329 302 283 280 276 91 45 95 51 100 97 53 71 94 78 98 253 237 196 191 198 264 244 276 281 146 178 193 194 283 219 229 260
340 341 331 331 337 347 333 113 340 319 311 241 329 259 208 160 192 125 100 52 84 58 76 240 214 209 193 165 186 204 198 300 228 337 311 270 151 199 128 92 285 190 228 305
338 333 328 329 329 346 345 240 136 279 267 273 320 215 244 145 154 141 106 147 118 339 112 178 242 275 262 167 184 161 181 183 221 248 278 287 273 118 109 315 296 146 190 313
331 325 322 322 323 340 355 296 144 115 291 283 297 330 317 77 275 172 110 111 127 102 165 207 227 243 222 270 159 166 173 180 174 202 232 257 153 100 224 199 308 241 204 161
322 316 315 310 310 323 338 288 221 179 235 271 321 287 289 5 4 103 185 55 123 95 168 217 322 283 246 241 228 144 183 198 176 191 213 253 239 276 273 293 300 300 109 137
317 313 311 303 297 303 307 292 290 251 262 258 253 229 128 158 48 344 143 309 126 155 210 212 242 265 309 242 230 170 225 193 234 166 251 252 272 279 354 7 63 50 56 267
313 311 311 300 296 295 284 262 269 269 262 285 97 147 107 69 53 49 46 124 78 100 134 210 254 252 319 277 275 260 207 155 205 258 287 277 10 58 47 87 89 73 45 308
311 308 302 291 288 287 292 262 241 224 275 329 298 303 110 115 123 174 156 155 147 160 173 216 214 259 246 255 352 268 174 181 175 227 197 39 94 67 26 80 77 75 106 68
308 295 287 276 279 273 290 268 97 159 178 261 296 45 180 113 96 165 159 162 210 166 172 241 237 249 226 262 234 243 225 210 222 274 74 96 106 96 71 98 99 87 90 93
307 290 280 257 244 229 230 320 54 139 174 248 279 287 132 103 133 254 218 186 215 223 189 215 264 301 224 263 238 243 35 62 25 308 216 249 165 159 109 106 94 97 85 77
319 306 228 203 203 245 269 243 226 186 282 259 258 277 253 165 191 243 193 213 193 171 267 247 215 170 228 261 262 283 330 18 355 327 191 107 112 104 110 119 119 112 113 109
326 81 114 118 205 222 238 29 136 161 300 293 175 245 292 170 220 205 207 264 185 173 217 224 335 189 223 238 308 5 32 16 342 24 33 115 154 145 139 136 126 125 136 125
302 260 258 201 192 70 114 195 147 178 212 231 255 237 268 179 187 161 277 8 252 236 204 329 228 262 259 359 359 324 328 350 219 193 307 238 148 168 168 165 148 143 144 128
236 257 263 324 332 207 219 192 179 172 238 195 222 244 295 29 278 338 176 229 205 256 40 271 265 266 61 3 353 355 332 317 282 243 351 239 203 173 161 153 139 140 137 129
315 299 289 279 248 291 139 190 59 185 240 43 324 337 322 322 339 285 263 230 239 353 256 272 263 25 3 355 345 340 343 334 349 49 346 309 181 137 130 131 136 131 124 130
247 215 250 214 272 160 204 174 203 188 53 9 349 320 331 301 257 178 340 277 237 258 218 251 286 355 353 346 346 334 336 348 7 23 7 81 115 121 138 137 129 128 128 134
230 148 228 202 169 232 157 109 137 157 160 179 238 268 7 319 348 334 294 36 351 304 311 236 20 343 333 339 349 353 353 353 10 26 38 81 103 111 112 125 136 136 138 131
222 185 236 182 73 54 57 42 40 59 328 304 224 263 168 259 260 84 314 248 265 212 287 38 345 332 338 348 351 353 355 354 3 9 54 102 109 114 119 130 129 125 127 125
143 241 224 177 135 125 110 79 103 352 327 81 330 249 351 243 136 204 219 240 232 191 358 326 330 337 333 338 336 331 335 342 353 7 41 98 112 127 125 114 128 133 132 136
209 229 281 41 54 65 104 129 76 346 300 234 221 217 223 36 183 244 204 190 69 316 301 319 324 322 324 328 326 343 344 350 2 9 29 72 96 96 110 117 102 115 117 119